User: anonymous   Login
Location: CNYAC Observatory
(43.2150°N, 74.9500°W)
Time: 03:33:48
(UTC-04:00)
Language:

Meteor 1-22 Rocket - Orbit

View from above orbital plane
View from above orbital plane
View from above satellite
View from above satellite

Ground track
Ground track

The orbit data is extracted from the following two-line orbital elements,

1 08294U 75087B   14304.83063611  .00000136  00000-0  69059-4 0  1096
2 08294 081.2193 237.6095 0106096 227.4540 184.4801 14.08502854  9807
Epoch (UTC): 31 October 2014 19:56:06
Eccentricity: 0.0106096
inclination: 81.2193°
perigee height: 787 km
apogee height: 941 km
right ascension of ascending node: 237.6095°
argument of perigee: 227.4540°
revolutions per day: 14.08502854
mean anomaly at epoch: 184.4801°
orbit number at epoch: 980

The dashed part of the orbit path shows where the satellite is in the earth's shadow,  

DLR